Regional Weather Roundup
Issued by NWS

Home | Current Version | Previous Version | Text Only | Print | Product List | Glossary Off
Versions: 1 2 3 4 5 6 7 8 9 10 11 12 13 14 15 16 17 18 19 20 21 22 23 24 25 26 27 28 29 30 31 32 33 34 35 36 37 38 39 40 41 42 43 44 45 46 47 48 49 50

000
ASUS45 KBOI 271410
RWRID
WEATHER ROUNDUP FOR IDAHO
NATIONAL WEATHER SERVICE BOISE ID
700 AM MST TUE JAN 27 2015

NOTE: "FAIR" INDICATES FEW OR NO CLOUDS BELOW 12000 FEET
WITH NO SIGNIFICANT WEATHER AND/OR OBSTRUCTIONS TO VISIBILITY

IDZ012-014-271500-
SOUTHWEST IDAHO


CITY           SKY/WX    TMP DP  RH WIND       PRES   REMARKS
BOISE          FOG       27  26  96 CALM      30.10S VSB 1/2
CALDWELL       CLOUDY    28  23  80 CALM      30.14R VSB 1/2
MOUNTAIN HOME  FOG       30  28  93 SE2       30.10S VSB 1/2
$$

IDZ016-017-271500-
SOUTHCENTRAL IDAHO


CITY           SKY/WX    TMP DP  RH WIND       PRES   REMARKS
BURLEY         MOCLDY    34  30  85 E8        30.07S WCI  27
JEROME         PTCLDY    34  30  85 NE16      30.09R WCI  24
TWIN FALLS     PTCLDY    35  29  78 CALM      30.08R
$$

IDZ019>023-271500-
SOUTHEAST IDAHO


CITY           SKY/WX    TMP DP  RH WIND       PRES   REMARKS
IDAHO FALLS    PTCLDY    25  21  85 N6        30.15R WCI  18
POCATELLO      CLEAR     26  26 100 CALM      30.14R
REXBURG        PTCLDY    21  14  74 CALM      30.15R
$$

IDZ006-010-011-018-031-032-271500-
CENTRAL IDAHO MOUNTAINS


CITY           SKY/WX    TMP DP  RH WIND       PRES   REMARKS
MCCALL         PTCLDY    20  18  92 CALM      30.05S
HAILEY         CLEAR     32  25  74 W8        30.13R WCI  25
STANLEY          N/A      9   3  77 CALM      30.15S
SALMON         CLOUDY   N/A N/A N/A CALM      30.17S VSB 1
CHALLIS        MOCLDY    24  23  96 W3        30.13S
$$

IDZ002-004-006-007-026-271500-
NORTHERN IDAHO


CITY           SKY/WX    TMP DP  RH WIND       PRES   REMARKS
LEWISTON       MOCLDY    40  35  83 E6        30.01R
LOWELL           N/A     36  33  89 N3        30.12S
COEUR D`ALENE  CLEAR     28  27  93 NE7       29.99S WCI  21
MULLAN PASS    MOCLDY    44  25  47 W5        30.01F
$$


USA.gov is the U.S. government's official web portal to all federal, state and local government web resources and services.